Location: Fontevrault
(47.1823°N, 0.0493°E)
Time: 14:28:00
(UTC+00:00)

Lacrosse 5 - Pass Details

Date: 30 October 2021
Orbit: 714 x 724 km, 57.0° (Epoch: 28 August)

Event Time Altitude Azimuth Distance (km) Brightness Sun altitude
Rises 20:32:26 0° 255° (WSW) 3,134 5.8 -38.4°
Reaches altitude 10° 20:34:55 10° 262° (W) 2,215 4.9 -38.8°
Enters shadow 20:35:59 16° 267° (W) 1,841 4.5 -39.0°
